Year,Month,Day,Hour,Minute,Value (Times are PST for temperature in C)
2019,05,26,00,00,13.60
2019,05,26,00,02,13.60
2019,05,26,00,03,13.50
2019,05,26,00,04,13.50
2019,05,26,00,05,13.50
2019,05,26,00,06,13.40
2019,05,26,00,07,13.40
2019,05,26,00,09,13.40
2019,05,26,00,10,13.40
2019,05,26,00,11,13.30
2019,05,26,00,12,13.30
2019,05,26,00,13,13.30
2019,05,26,00,15,13.30
2019,05,26,00,16,13.30
2019,05,26,00,17,13.30
2019,05,26,00,18,13.20
2019,05,26,00,20,13.20
2019,05,26,00,21,13.20
2019,05,26,00,22,13.20
2019,05,26,00,23,13.10
2019,05,26,00,24,13.10
2019,05,26,00,25,13.10
2019,05,26,00,26,13.10
2019,05,26,00,28,13.00
2019,05,26,00,29,13.00
2019,05,26,00,30,12.90
2019,05,26,00,31,12.90
2019,05,26,00,33,12.90
2019,05,26,00,34,12.90
2019,05,26,00,35,12.90
2019,05,26,00,36,12.90
2019,05,26,00,37,12.80
2019,05,26,00,39,12.80
2019,05,26,00,40,12.80
2019,05,26,00,41,12.80
2019,05,26,00,42,12.80
2019,05,26,00,44,12.80
2019,05,26,00,45,12.70
2019,05,26,00,47,12.70
2019,05,26,00,48,12.70
2019,05,26,00,49,12.70
2019,05,26,00,50,12.70
2019,05,26,00,51,12.70
2019,05,26,00,52,12.70
2019,05,26,00,53,12.70
2019,05,26,00,55,12.60
2019,05,26,00,56,12.60
2019,05,26,00,57,12.60
2019,05,26,00,58,12.60
2019,05,26,00,59,12.60
2019,05,26,01,01,12.60
2019,05,26,01,02,12.50
2019,05,26,01,03,12.50
2019,05,26,01,04,12.40
2019,05,26,01,05,12.40
2019,05,26,01,07,12.40
2019,05,26,01,08,12.40
2019,05,26,01,09,12.30
2019,05,26,01,10,12.30
2019,05,26,01,11,12.30
2019,05,26,01,12,12.30
2019,05,26,01,14,12.30
2019,05,26,01,15,12.20
2019,05,26,01,16,12.20
2019,05,26,01,17,12.20
2019,05,26,01,18,12.20
2019,05,26,01,20,12.10
2019,05,26,01,22,12.10
2019,05,26,01,23,12.00
2019,05,26,01,25,11.90
2019,05,26,01,26,11.90
2019,05,26,01,27,11.90
2019,05,26,01,28,11.90
2019,05,26,01,29,11.80
2019,05,26,01,30,11.80
2019,05,26,01,31,11.80
2019,05,26,01,33,11.80
2019,05,26,01,34,11.70
2019,05,26,01,35,11.70
2019,05,26,01,36,11.70
2019,05,26,01,37,11.70
2019,05,26,01,39,11.70
2019,05,26,01,40,11.60
2019,05,26,01,41,11.60
2019,05,26,01,42,11.60
2019,05,26,01,43,11.50
2019,05,26,01,44,11.50
2019,05,26,01,45,11.40
2019,05,26,01,47,11.40
2019,05,26,01,48,11.40
2019,05,26,01,50,11.40
2019,05,26,01,51,11.30
2019,05,26,01,52,11.30
2019,05,26,01,53,11.30
2019,05,26,01,54,11.30
2019,05,26,01,55,11.30
2019,05,26,01,56,11.20
2019,05,26,01,57,11.20
2019,05,26,01,58,11.20
2019,05,26,02,00,11.20
2019,05,26,02,02,11.10
2019,05,26,02,03,11.10
2019,05,26,02,04,11.10
2019,05,26,02,05,11.10
2019,05,26,02,06,11.10
2019,05,26,02,08,11.10
2019,05,26,02,09,11.00
2019,05,26,02,10,10.90
2019,05,26,02,12,10.90
2019,05,26,02,14,10.90
2019,05,26,02,16,10.80
2019,05,26,02,17,10.80
2019,05,26,02,19,10.80
2019,05,26,02,21,10.80
2019,05,26,02,22,10.70
2019,05,26,02,24,10.70
2019,05,26,02,25,10.70
2019,05,26,02,26,10.70
2019,05,26,02,28,10.70
2019,05,26,02,29,10.60
2019,05,26,02,31,10.60
2019,05,26,02,32,10.60
2019,05,26,02,33,10.60
2019,05,26,02,34,10.60
2019,05,26,02,35,10.60
2019,05,26,02,36,10.60
2019,05,26,02,37,10.50
2019,05,26,02,38,10.50
2019,05,26,02,39,10.50
2019,05,26,02,41,10.40
2019,05,26,02,42,10.40
2019,05,26,02,43,10.40
2019,05,26,02,44,10.40
2019,05,26,02,45,10.40
2019,05,26,02,47,10.40
2019,05,26,02,48,10.40
2019,05,26,02,49,10.30
2019,05,26,02,50,10.30
2019,05,26,02,51,10.30
2019,05,26,02,52,10.30
2019,05,26,02,53,10.30
2019,05,26,02,54,10.30
2019,05,26,02,55,10.30
2019,05,26,02,56,10.30
2019,05,26,02,57,10.30
2019,05,26,02,58,10.20
2019,05,26,03,00,10.20
2019,05,26,03,01,10.20
2019,05,26,03,02,10.20
2019,05,26,03,03,10.20
2019,05,26,03,04,10.20
2019,05,26,03,05,10.20
2019,05,26,03,06,10.20
2019,05,26,03,07,10.10
2019,05,26,03,08,10.10
2019,05,26,03,10,10.10
2019,05,26,03,11,10.10
2019,05,26,03,12,10.10
2019,05,26,03,13,10.10
2019,05,26,03,15,10.10
2019,05,26,03,16,10.10
2019,05,26,03,17,10.10
2019,05,26,03,19,10.10
2019,05,26,03,21,10.10
2019,05,26,03,22,10.10
2019,05,26,03,23,10.10
2019,05,26,03,24,10.10
2019,05,26,03,25,10.10
2019,05,26,03,26,10.00
2019,05,26,03,27,10.00
2019,05,26,03,28,10.00
2019,05,26,03,30,10.00
2019,05,26,03,32,9.90
2019,05,26,03,33,9.90
2019,05,26,03,34,9.90
2019,05,26,03,35,9.90
2019,05,26,03,36,9.90
2019,05,26,03,37,9.90
2019,05,26,03,38,9.80
2019,05,26,03,40,9.80
2019,05,26,03,41,9.80
2019,05,26,03,42,9.80
2019,05,26,03,44,9.80
2019,05,26,03,45,9.70
2019,05,26,03,46,9.70
2019,05,26,03,47,9.70
2019,05,26,03,48,9.70
2019,05,26,03,49,9.70
2019,05,26,03,50,9.70
2019,05,26,03,51,9.70
2019,05,26,03,53,9.60
2019,05,26,03,54,9.60
2019,05,26,03,55,9.60
2019,05,26,03,57,9.60
2019,05,26,03,58,9.50
2019,05,26,04,00,9.50
2019,05,26,04,01,9.50
2019,05,26,04,02,9.50
2019,05,26,04,04,9.40
2019,05,26,04,05,9.40
2019,05,26,04,06,9.40
2019,05,26,04,07,9.40
2019,05,26,04,08,9.40
2019,05,26,04,09,9.30
2019,05,26,04,10,9.30
2019,05,26,04,11,9.30
2019,05,26,04,12,9.30
2019,05,26,04,13,9.30
2019,05,26,04,14,9.30
2019,05,26,04,16,9.30
2019,05,26,04,17,9.30
2019,05,26,04,18,9.30
2019,05,26,04,19,9.30
2019,05,26,04,20,9.20
2019,05,26,04,21,9.20
2019,05,26,04,22,9.20
2019,05,26,04,24,9.20
2019,05,26,04,26,9.20
2019,05,26,04,27,9.20
2019,05,26,04,28,9.20
2019,05,26,04,29,9.20
2019,05,26,04,30,9.20
2019,05,26,04,31,9.10
2019,05,26,04,32,9.10
2019,05,26,04,33,9.10
2019,05,26,04,34,9.10
2019,05,26,04,35,9.10
2019,05,26,04,36,9.10
2019,05,26,04,37,9.10
2019,05,26,04,38,9.10
2019,05,26,04,39,9.00
2019,05,26,04,40,9.00
2019,05,26,04,41,8.90
2019,05,26,04,42,8.90
2019,05,26,04,43,8.90
2019,05,26,04,45,8.90
2019,05,26,04,46,8.90
2019,05,26,04,47,8.90
2019,05,26,04,48,8.80
2019,05,26,04,49,8.80
2019,05,26,04,51,8.80
2019,05,26,04,53,8.80
2019,05,26,04,54,8.80
2019,05,26,04,55,8.80
2019,05,26,04,56,8.80
2019,05,26,04,57,8.80
2019,05,26,04,58,8.80
2019,05,26,04,59,8.70
2019,05,26,05,00,8.70
2019,05,26,05,01,8.70
2019,05,26,05,02,8.70
2019,05,26,05,04,8.70
2019,05,26,05,05,8.70
2019,05,26,05,07,8.70
2019,05,26,05,09,8.70
2019,05,26,05,10,8.70
2019,05,26,05,12,8.70
2019,05,26,05,13,8.70
2019,05,26,05,15,8.70
2019,05,26,05,16,8.70
2019,05,26,05,17,8.70
2019,05,26,05,18,8.70
2019,05,26,05,20,8.70
2019,05,26,05,21,8.60
2019,05,26,05,23,8.60
2019,05,26,05,24,8.60
2019,05,26,05,26,8.60
2019,05,26,05,27,8.60
2019,05,26,05,28,8.60
2019,05,26,05,29,8.60
2019,05,26,05,30,8.60
2019,05,26,05,31,8.60
2019,05,26,05,32,8.60
2019,05,26,05,33,8.60
2019,05,26,05,34,8.60
2019,05,26,05,35,8.60
2019,05,26,05,37,8.60
2019,05,26,05,39,8.60
2019,05,26,05,40,8.60
2019,05,26,05,41,8.50
2019,05,26,05,42,8.60
2019,05,26,05,43,8.50
2019,05,26,05,44,8.50
2019,05,26,05,45,8.50
2019,05,26,05,46,8.50
2019,05,26,05,47,8.50
2019,05,26,05,48,8.50
2019,05,26,05,49,8.50
2019,05,26,05,50,8.50
2019,05,26,05,51,8.50
2019,05,26,05,53,8.50
2019,05,26,05,54,8.50
2019,05,26,05,55,8.50
2019,05,26,05,56,8.60
2019,05,26,05,57,8.60
2019,05,26,05,58,8.60
2019,05,26,05,59,8.60
2019,05,26,06,00,8.60
2019,05,26,06,01,8.60
2019,05,26,06,02,8.60
2019,05,26,06,04,8.60
2019,05,26,06,05,8.60
2019,05,26,06,06,8.60
2019,05,26,06,07,8.60
2019,05,26,06,08,8.70
2019,05,26,06,10,8.70
2019,05,26,06,11,8.70
2019,05,26,06,12,8.70
2019,05,26,06,13,8.70
2019,05,26,06,14,8.70
2019,05,26,06,15,8.80
2019,05,26,06,16,8.80
2019,05,26,06,17,8.80
2019,05,26,06,19,8.80
2019,05,26,06,20,8.90
2019,05,26,06,21,8.90
2019,05,26,06,22,9.00
2019,05,26,06,23,9.10
2019,05,26,06,24,9.10
2019,05,26,06,25,9.10
2019,05,26,06,26,9.10
2019,05,26,06,27,9.20
2019,05,26,06,28,9.20
2019,05,26,06,29,9.20
2019,05,26,06,30,9.30
2019,05,26,06,31,9.30
2019,05,26,06,32,9.40
2019,05,26,06,33,9.40
2019,05,26,06,34,9.40
2019,05,26,06,35,9.50
2019,05,26,06,36,9.60
2019,05,26,06,37,9.70
2019,05,26,06,38,9.70
2019,05,26,06,39,9.80
2019,05,26,06,40,9.80
2019,05,26,06,42,9.90
2019,05,26,06,43,9.90
2019,05,26,06,44,10.00
2019,05,26,06,45,10.10
2019,05,26,06,46,10.10
2019,05,26,06,47,10.10
2019,05,26,06,48,10.10
2019,05,26,06,49,10.20
2019,05,26,06,50,10.20
2019,05,26,06,51,10.20
2019,05,26,06,52,10.20
2019,05,26,06,53,10.20
2019,05,26,06,54,10.20
2019,05,26,06,55,10.20
2019,05,26,06,56,10.20
2019,05,26,06,57,10.30
2019,05,26,06,58,10.30
2019,05,26,06,59,10.30
2019,05,26,07,00,10.40
2019,05,26,07,01,10.40
2019,05,26,07,02,10.40
2019,05,26,07,03,10.50
2019,05,26,07,04,10.60
2019,05,26,07,05,10.60
2019,05,26,07,06,10.60
2019,05,26,07,08,10.70
2019,05,26,07,09,10.80
2019,05,26,07,10,10.80
2019,05,26,07,11,10.80
2019,05,26,07,12,10.80
2019,05,26,07,13,10.80
2019,05,26,07,14,10.90
2019,05,26,07,15,10.90
2019,05,26,07,16,11.00
2019,05,26,07,17,11.10
2019,05,26,07,18,11.10
2019,05,26,07,19,11.20
2019,05,26,07,20,11.20
2019,05,26,07,21,11.30
2019,05,26,07,22,11.30
2019,05,26,07,23,11.30
2019,05,26,07,24,11.40
2019,05,26,07,25,11.50
2019,05,26,07,26,11.60
2019,05,26,07,27,11.70
2019,05,26,07,28,11.80
2019,05,26,07,29,11.80
2019,05,26,07,30,11.90
2019,05,26,07,31,12.10
2019,05,26,07,32,12.20
2019,05,26,07,33,12.30
2019,05,26,07,34,12.30
2019,05,26,07,35,12.50
2019,05,26,07,36,12.70
2019,05,26,07,37,12.80
2019,05,26,07,39,12.90
2019,05,26,07,40,13.10
2019,05,26,07,41,13.20
2019,05,26,07,42,13.30
2019,05,26,07,43,13.30
2019,05,26,07,44,13.40
2019,05,26,07,45,13.40
2019,05,26,07,47,13.40
2019,05,26,07,48,13.50
2019,05,26,07,49,13.50
2019,05,26,07,50,13.40
2019,05,26,07,51,13.40
2019,05,26,07,52,13.40
2019,05,26,07,54,13.40
2019,05,26,07,55,13.50
2019,05,26,07,56,13.50
2019,05,26,07,57,13.60
2019,05,26,07,58,13.60
2019,05,26,07,59,13.70
2019,05,26,08,00,13.80
2019,05,26,08,01,13.80
2019,05,26,08,02,13.90
2019,05,26,08,03,14.00
2019,05,26,08,04,14.10
2019,05,26,08,05,14.20
2019,05,26,08,06,14.30
2019,05,26,08,07,14.30
2019,05,26,08,08,14.30
2019,05,26,08,09,14.40
2019,05,26,08,10,14.50
2019,05,26,08,11,14.60
2019,05,26,08,12,14.60
2019,05,26,08,13,14.60
2019,05,26,08,14,14.60
2019,05,26,08,15,14.70
2019,05,26,08,17,14.70
2019,05,26,08,18,14.80
2019,05,26,08,19,14.80
2019,05,26,08,20,14.80
2019,05,26,08,21,14.90
2019,05,26,08,22,14.90
2019,05,26,08,23,14.90
2019,05,26,08,24,15.00
2019,05,26,08,25,15.10
2019,05,26,08,26,15.20
2019,05,26,08,27,15.20
2019,05,26,08,29,15.30
2019,05,26,08,30,15.40
2019,05,26,08,31,15.50
2019,05,26,08,33,15.50
2019,05,26,08,34,15.50
2019,05,26,08,35,15.60
2019,05,26,08,36,15.60
2019,05,26,08,38,15.60
2019,05,26,08,39,15.70
2019,05,26,08,40,15.70
2019,05,26,08,41,15.70
2019,05,26,08,42,15.70
2019,05,26,08,43,15.70
2019,05,26,08,44,15.70
2019,05,26,08,45,15.70
2019,05,26,08,46,15.70
2019,05,26,08,47,15.70
2019,05,26,08,48,15.80
2019,05,26,08,49,15.80
2019,05,26,08,50,15.80
2019,05,26,08,51,15.90
2019,05,26,08,52,15.90
2019,05,26,08,53,15.90
2019,05,26,08,54,16.00
2019,05,26,08,55,16.10
2019,05,26,08,56,16.10
2019,05,26,08,57,16.20
2019,05,26,08,58,16.30
2019,05,26,08,59,16.30
2019,05,26,09,00,16.30
2019,05,26,09,01,16.40
2019,05,26,09,02,16.40
2019,05,26,09,03,16.40
2019,05,26,09,04,16.40
2019,05,26,09,05,16.40
2019,05,26,09,06,16.50
2019,05,26,09,07,16.60
2019,05,26,09,08,16.60
2019,05,26,09,09,16.70
2019,05,26,09,10,16.80
2019,05,26,09,11,16.80
2019,05,26,09,12,16.80
2019,05,26,09,13,16.90
2019,05,26,09,14,16.90
2019,05,26,09,15,16.90
2019,05,26,09,16,16.90
2019,05,26,09,17,16.90
2019,05,26,09,18,17.00
2019,05,26,09,19,17.10
2019,05,26,09,20,17.10
2019,05,26,09,21,17.20
2019,05,26,09,22,17.20
2019,05,26,09,23,17.30
2019,05,26,09,24,17.30
2019,05,26,09,25,17.20
2019,05,26,09,26,17.20
2019,05,26,09,27,17.20
2019,05,26,09,28,17.10
2019,05,26,09,29,17.10
2019,05,26,09,30,17.10
2019,05,26,09,31,17.10
2019,05,26,09,32,17.10
2019,05,26,09,33,17.10
2019,05,26,09,34,17.10
2019,05,26,09,35,17.10
2019,05,26,09,36,17.10
2019,05,26,09,37,17.10
2019,05,26,09,38,17.20
2019,05,26,09,39,17.20
2019,05,26,09,40,17.30
2019,05,26,09,41,17.40
2019,05,26,09,42,17.60
2019,05,26,09,43,17.70
2019,05,26,09,44,17.80
2019,05,26,09,45,17.80
2019,05,26,09,46,17.90
2019,05,26,09,47,17.90
2019,05,26,09,48,17.90
2019,05,26,09,49,17.90
2019,05,26,09,50,18.00
2019,05,26,09,51,18.10
2019,05,26,09,52,18.20
2019,05,26,09,53,18.20
2019,05,26,09,54,18.20
2019,05,26,09,55,18.20
2019,05,26,09,56,18.20
2019,05,26,09,57,18.20
2019,05,26,09,58,18.30
2019,05,26,09,59,18.30
2019,05,26,10,00,18.30
2019,05,26,10,01,18.40
2019,05,26,10,02,18.40
2019,05,26,10,03,18.50
2019,05,26,10,04,18.60
2019,05,26,10,05,18.60
2019,05,26,10,06,18.70
2019,05,26,10,07,18.80
2019,05,26,10,08,18.90
2019,05,26,10,09,19.10
2019,05,26,10,10,19.10
2019,05,26,10,11,19.10
2019,05,26,10,12,19.10
2019,05,26,10,13,19.10
2019,05,26,10,14,19.00
2019,05,26,10,15,19.00
2019,05,26,10,16,19.10
2019,05,26,10,17,19.10
2019,05,26,10,18,19.10
2019,05,26,10,19,19.10
2019,05,26,10,20,19.10
2019,05,26,10,21,19.10
2019,05,26,10,22,19.10
2019,05,26,10,23,19.10
2019,05,26,10,24,19.20
2019,05,26,10,25,19.20
2019,05,26,10,26,19.30
2019,05,26,10,27,19.30
2019,05,26,10,28,19.50
2019,05,26,10,29,19.60
2019,05,26,10,30,19.70
2019,05,26,10,31,19.80
2019,05,26,10,32,19.90
2019,05,26,10,33,19.90
2019,05,26,10,34,19.90
2019,05,26,10,35,20.00
2019,05,26,10,36,20.10
2019,05,26,10,37,20.20
2019,05,26,10,38,20.30
2019,05,26,10,39,20.40
2019,05,26,10,40,20.60
2019,05,26,10,41,20.70
2019,05,26,10,42,20.80
2019,05,26,10,43,20.80
2019,05,26,10,44,20.80
2019,05,26,10,45,20.90
2019,05,26,10,46,20.90
2019,05,26,10,47,20.90
2019,05,26,10,48,20.90
2019,05,26,10,49,21.00
2019,05,26,10,50,21.10
2019,05,26,10,51,21.20
2019,05,26,10,52,21.20
2019,05,26,10,53,21.30
2019,05,26,10,54,21.30
2019,05,26,10,55,21.30
2019,05,26,10,56,21.30
2019,05,26,10,57,21.30
2019,05,26,10,58,21.30
2019,05,26,10,59,21.30
2019,05,26,11,00,21.30
2019,05,26,11,01,21.40
2019,05,26,11,02,21.40
2019,05,26,11,03,21.40
2019,05,26,11,04,21.50
2019,05,26,11,05,21.60
2019,05,26,11,06,21.60
2019,05,26,11,07,21.60
2019,05,26,11,08,21.70
2019,05,26,11,09,21.70
2019,05,26,11,10,21.70
2019,05,26,11,11,21.70
2019,05,26,11,12,21.70
2019,05,26,11,13,21.80
2019,05,26,11,14,21.80
2019,05,26,11,15,21.80
2019,05,26,11,16,21.90
2019,05,26,11,17,22.00
2019,05,26,11,18,22.10
2019,05,26,11,19,22.20
2019,05,26,11,20,22.30
2019,05,26,11,21,22.40
2019,05,26,11,22,22.50
2019,05,26,11,23,22.60
2019,05,26,11,24,22.70
2019,05,26,11,25,22.80
2019,05,26,11,26,22.80
2019,05,26,11,27,22.90
2019,05,26,11,28,23.00
2019,05,26,11,29,23.10
2019,05,26,11,30,23.20
2019,05,26,11,31,23.20
2019,05,26,11,32,23.30
2019,05,26,11,33,23.40
2019,05,26,11,34,23.50
2019,05,26,11,35,23.60
2019,05,26,11,36,23.60
2019,05,26,11,37,23.60
2019,05,26,11,38,23.70
2019,05,26,11,39,23.70
2019,05,26,11,40,23.70
2019,05,26,11,41,23.70
2019,05,26,11,42,23.80
2019,05,26,11,43,23.90
2019,05,26,11,44,24.00
2019,05,26,11,45,24.10
2019,05,26,11,46,24.20
2019,05,26,11,47,24.30
2019,05,26,11,48,24.40
2019,05,26,11,49,24.60
2019,05,26,11,50,24.70
2019,05,26,11,51,24.80
2019,05,26,11,52,24.80
2019,05,26,11,53,24.80
2019,05,26,11,54,24.90
2019,05,26,11,55,24.90
2019,05,26,11,56,24.90
2019,05,26,11,57,24.90
2019,05,26,11,58,25.00
2019,05,26,11,59,25.10
2019,05,26,12,00,25.10
2019,05,26,12,01,25.20
2019,05,26,12,02,25.20
2019,05,26,12,03,25.20
2019,05,26,12,04,25.20
2019,05,26,12,05,25.20
2019,05,26,12,06,25.20
2019,05,26,12,07,25.20
2019,05,26,12,08,25.20
2019,05,26,12,09,25.30
2019,05,26,12,10,25.30
2019,05,26,12,11,25.30
2019,05,26,12,12,25.30
2019,05,26,12,13,25.30
2019,05,26,12,14,25.30
2019,05,26,12,15,25.30
2019,05,26,12,16,25.30
2019,05,26,12,17,25.30
2019,05,26,12,18,25.30
2019,05,26,12,19,25.30
2019,05,26,12,20,25.30
2019,05,26,12,21,25.30
2019,05,26,12,22,25.30
2019,05,26,12,23,25.20
2019,05,26,12,24,25.20
2019,05,26,12,25,25.30
2019,05,26,12,26,25.30
2019,05,26,12,27,25.30
2019,05,26,12,28,25.40
2019,05,26,12,29,25.50
2019,05,26,12,30,25.60
2019,05,26,12,31,25.60
2019,05,26,12,32,25.60
2019,05,26,12,33,25.70
2019,05,26,12,34,25.70
2019,05,26,12,35,25.70
2019,05,26,12,36,25.70
2019,05,26,12,37,25.70
2019,05,26,12,38,25.70
2019,05,26,12,39,25.70
2019,05,26,12,40,25.80
2019,05,26,12,41,25.90
2019,05,26,12,42,26.10
2019,05,26,12,43,26.10
2019,05,26,12,44,26.20
2019,05,26,12,45,26.30
2019,05,26,12,46,26.50
2019,05,26,12,47,26.70
2019,05,26,12,48,26.80
2019,05,26,12,49,26.90
2019,05,26,12,50,27.10
2019,05,26,12,51,27.10
2019,05,26,12,52,27.20
2019,05,26,12,53,27.20
2019,05,26,12,54,27.30
2019,05,26,12,55,27.30
2019,05,26,12,56,27.40
2019,05,26,12,57,27.50
2019,05,26,12,58,27.60
2019,05,26,12,59,27.70
2019,05,26,13,00,27.80
2019,05,26,13,01,27.80
2019,05,26,13,02,27.90
2019,05,26,13,03,27.90
2019,05,26,13,04,27.90
2019,05,26,13,05,27.90
2019,05,26,13,06,27.90
2019,05,26,13,07,27.80
2019,05,26,13,08,27.80
2019,05,26,13,09,27.70
2019,05,26,13,10,27.80
2019,05,26,13,11,27.80
2019,05,26,13,12,27.80
2019,05,26,13,13,27.80
2019,05,26,13,14,27.70
2019,05,26,13,15,27.70
2019,05,26,13,16,27.70
2019,05,26,13,17,27.70
2019,05,26,13,18,27.70
2019,05,26,13,19,27.70
2019,05,26,13,20,27.70
2019,05,26,13,21,27.70
2019,05,26,13,22,27.80
2019,05,26,13,23,27.80
2019,05,26,13,24,27.80
2019,05,26,13,25,27.80
2019,05,26,13,26,27.70
2019,05,26,13,27,27.70
2019,05,26,13,28,27.70
2019,05,26,13,29,27.70
2019,05,26,13,30,27.80
2019,05,26,13,31,27.80
2019,05,26,13,32,27.80
2019,05,26,13,33,27.80
2019,05,26,13,34,27.80
2019,05,26,13,35,27.80
2019,05,26,13,36,27.80
2019,05,26,13,37,27.80
2019,05,26,13,38,27.80
2019,05,26,13,39,27.90
2019,05,26,13,40,28.00
2019,05,26,13,41,28.10
2019,05,26,13,42,28.10
2019,05,26,13,43,28.10
2019,05,26,13,44,28.10
2019,05,26,13,45,28.10
2019,05,26,13,46,28.10
2019,05,26,13,47,28.10
2019,05,26,13,48,28.10
2019,05,26,13,49,28.10
2019,05,26,13,50,28.10
2019,05,26,13,51,28.00
2019,05,26,13,52,28.00
2019,05,26,13,53,28.00
2019,05,26,13,54,27.90
2019,05,26,13,55,27.90
2019,05,26,13,56,27.90
2019,05,26,13,57,27.90
2019,05,26,13,58,27.90
2019,05,26,13,59,27.90
2019,05,26,14,00,28.00
2019,05,26,14,01,28.00
2019,05,26,14,02,28.00
2019,05,26,14,03,28.00
2019,05,26,14,04,28.10
2019,05,26,14,05,28.10
2019,05,26,14,06,28.10
2019,05,26,14,07,28.10
2019,05,26,14,08,28.20
2019,05,26,14,09,28.10
2019,05,26,14,10,28.20
2019,05,26,14,11,28.20
2019,05,26,14,12,28.20
2019,05,26,14,13,28.30
2019,05,26,14,14,28.30
2019,05,26,14,15,28.40
2019,05,26,14,16,28.50
2019,05,26,14,17,28.50
2019,05,26,14,18,28.40
2019,05,26,14,19,28.40
2019,05,26,14,20,28.30
2019,05,26,14,21,28.20
2019,05,26,14,22,28.20
2019,05,26,14,23,28.20
2019,05,26,14,24,28.20
2019,05,26,14,25,28.20
2019,05,26,14,26,28.20
2019,05,26,14,27,28.20
2019,05,26,14,28,28.20
2019,05,26,14,29,28.20
2019,05,26,14,30,28.30
2019,05,26,14,31,28.30
2019,05,26,14,32,28.30
2019,05,26,14,33,28.40
2019,05,26,14,34,28.40
2019,05,26,14,35,28.50
2019,05,26,14,36,28.60
2019,05,26,14,37,28.60
2019,05,26,14,38,28.60
2019,05,26,14,39,28.60
2019,05,26,14,40,28.60
2019,05,26,14,41,28.60
2019,05,26,14,42,28.70
2019,05,26,14,43,28.70
2019,05,26,14,44,28.70
2019,05,26,14,45,28.70
2019,05,26,14,46,28.70
2019,05,26,14,47,28.70
2019,05,26,14,48,28.70
2019,05,26,14,49,28.70
2019,05,26,14,50,28.80
2019,05,26,14,51,28.80
2019,05,26,14,52,28.80
2019,05,26,14,53,28.70
2019,05,26,14,55,28.70
2019,05,26,14,56,28.70
2019,05,26,14,57,28.70
2019,05,26,14,58,28.70
2019,05,26,14,59,28.70
2019,05,26,15,00,28.70
2019,05,26,15,01,28.60
2019,05,26,15,02,28.60
2019,05,26,15,03,28.60
2019,05,26,15,04,28.60
2019,05,26,15,05,28.50
2019,05,26,15,06,28.50
2019,05,26,15,08,28.60
2019,05,26,15,09,28.60
2019,05,26,15,10,28.70
2019,05,26,15,11,28.70
2019,05,26,15,12,28.70
2019,05,26,15,13,28.70
2019,05,26,15,14,28.70
2019,05,26,15,15,28.60
2019,05,26,15,16,28.60
2019,05,26,15,17,28.50
2019,05,26,15,18,28.50
2019,05,26,15,19,28.50
2019,05,26,15,20,28.50
2019,05,26,15,21,28.60
2019,05,26,15,22,28.60
2019,05,26,15,23,28.60
2019,05,26,15,24,28.70
2019,05,26,15,25,28.70
2019,05,26,15,26,28.80
2019,05,26,15,27,28.80
2019,05,26,15,28,28.90
2019,05,26,15,29,28.90
2019,05,26,15,30,28.90
2019,05,26,15,31,28.90
2019,05,26,15,32,28.90
2019,05,26,15,33,28.90
2019,05,26,15,34,28.90
2019,05,26,15,35,28.90
2019,05,26,15,36,28.80
2019,05,26,15,37,28.80
2019,05,26,15,38,28.80
2019,05,26,15,39,28.80
2019,05,26,15,40,28.70
2019,05,26,15,41,28.70
2019,05,26,15,42,28.80
2019,05,26,15,44,28.80
2019,05,26,15,45,28.80
2019,05,26,15,46,28.80
2019,05,26,15,47,28.80
2019,05,26,15,49,28.80
2019,05,26,15,50,28.80
2019,05,26,15,51,28.90
2019,05,26,15,52,28.90
2019,05,26,15,53,28.90
2019,05,26,15,54,28.90
2019,05,26,15,55,28.90
2019,05,26,15,56,28.90
2019,05,26,15,57,28.90
2019,05,26,15,58,28.90
2019,05,26,15,59,28.90
2019,05,26,16,00,28.90
2019,05,26,16,01,28.90
2019,05,26,16,02,28.90
2019,05,26,16,03,28.90
2019,05,26,16,04,28.90
2019,05,26,16,05,28.90
2019,05,26,16,06,28.90
2019,05,26,16,07,29.00
2019,05,26,16,08,29.10
2019,05,26,16,09,29.10
2019,05,26,16,10,29.10
2019,05,26,16,11,29.10
2019,05,26,16,12,29.10
2019,05,26,16,13,29.10
2019,05,26,16,14,29.10
2019,05,26,16,15,29.10
2019,05,26,16,16,29.10
2019,05,26,16,17,29.20
2019,05,26,16,19,29.30
2019,05,26,16,20,29.30
2019,05,26,16,21,29.30
2019,05,26,16,22,29.40
2019,05,26,16,23,29.40
2019,05,26,16,24,29.40
2019,05,26,16,25,29.30
2019,05,26,16,26,29.30
2019,05,26,16,27,29.30
2019,05,26,16,28,29.30
2019,05,26,16,29,29.30
2019,05,26,16,30,29.30
2019,05,26,16,31,29.20
2019,05,26,16,32,29.20
2019,05,26,16,33,29.20
2019,05,26,16,34,29.10
2019,05,26,16,35,29.10
2019,05,26,16,36,29.10
2019,05,26,16,38,29.00
2019,05,26,16,40,29.10
2019,05,26,16,41,29.10
2019,05,26,16,42,29.00
2019,05,26,16,43,29.00
2019,05,26,16,44,29.00
2019,05,26,16,45,29.00
2019,05,26,16,46,28.90
2019,05,26,16,47,29.00
2019,05,26,16,48,29.00
2019,05,26,16,49,29.00
2019,05,26,16,50,29.10
2019,05,26,16,51,29.10
2019,05,26,16,52,29.10
2019,05,26,16,53,29.10
2019,05,26,16,54,29.20
2019,05,26,16,55,29.20
2019,05,26,16,56,29.20
2019,05,26,16,57,29.20
2019,05,26,16,59,29.20
2019,05,26,17,00,29.20
2019,05,26,17,02,29.20
2019,05,26,17,03,29.20
2019,05,26,17,04,29.20
2019,05,26,17,05,29.20
2019,05,26,17,06,29.30
2019,05,26,17,07,29.30
2019,05,26,17,08,29.30
2019,05,26,17,09,29.30
2019,05,26,17,10,29.20
2019,05,26,17,11,29.20
2019,05,26,17,12,29.20
2019,05,26,17,13,29.20
2019,05,26,17,14,29.20
2019,05,26,17,15,29.10
2019,05,26,17,16,29.10
2019,05,26,17,17,29.10
2019,05,26,17,18,29.10
2019,05,26,17,19,29.00
2019,05,26,17,21,29.00
2019,05,26,17,22,29.00
2019,05,26,17,23,28.90
2019,05,26,17,24,28.90
2019,05,26,17,25,28.90
2019,05,26,17,26,28.90
2019,05,26,17,27,29.00
2019,05,26,17,28,29.00
2019,05,26,17,29,29.10
2019,05,26,17,30,29.10
2019,05,26,17,31,29.10
2019,05,26,17,32,29.10
2019,05,26,17,33,29.10
2019,05,26,17,35,29.10
2019,05,26,17,36,29.00
2019,05,26,17,38,29.00
2019,05,26,17,39,28.90
2019,05,26,17,40,28.90
2019,05,26,17,41,28.90
2019,05,26,17,42,28.90
2019,05,26,17,43,28.90
2019,05,26,17,44,28.90
2019,05,26,17,45,28.90
2019,05,26,17,46,28.90
2019,05,26,17,47,28.90
2019,05,26,17,48,28.90
2019,05,26,17,49,28.80
2019,05,26,17,50,28.80
2019,05,26,17,51,28.80
2019,05,26,17,52,28.90
2019,05,26,17,53,28.90
2019,05,26,17,54,28.90
2019,05,26,17,55,28.90
2019,05,26,17,56,28.90
2019,05,26,17,57,28.80
2019,05,26,17,59,28.80
2019,05,26,18,00,28.80
2019,05,26,18,01,28.80
2019,05,26,18,02,28.80
2019,05,26,18,04,28.80
2019,05,26,18,05,28.80
2019,05,26,18,06,28.80
2019,05,26,18,08,28.80
2019,05,26,18,10,28.90
2019,05,26,18,12,28.90
2019,05,26,18,13,28.90
2019,05,26,18,14,29.00
2019,05,26,18,16,29.00
2019,05,26,18,17,28.90
2019,05,26,18,18,28.90
2019,05,26,18,19,28.90
2019,05,26,18,20,28.90
2019,05,26,18,22,28.90
2019,05,26,18,23,28.80
2019,05,26,18,24,28.80
2019,05,26,18,26,28.80
2019,05,26,18,27,28.80
2019,05,26,18,28,28.80
2019,05,26,18,29,28.80
2019,05,26,18,30,28.80
2019,05,26,18,31,28.80
2019,05,26,18,32,28.80
2019,05,26,18,33,28.80
2019,05,26,18,34,28.80
2019,05,26,18,35,28.80
2019,05,26,18,36,28.80
2019,05,26,18,37,28.70
2019,05,26,18,39,28.80
2019,05,26,18,40,28.70
2019,05,26,18,41,28.70
2019,05,26,18,43,28.70
2019,05,26,18,44,28.70
2019,05,26,18,45,28.70
2019,05,26,18,47,28.70
2019,05,26,18,49,28.70
2019,05,26,18,50,28.70
2019,05,26,18,51,28.70
2019,05,26,18,53,28.70
2019,05,26,18,54,28.70
2019,05,26,18,55,28.70
2019,05,26,18,56,28.70
2019,05,26,18,58,28.70
2019,05,26,18,59,28.70
2019,05,26,19,00,28.60
2019,05,26,19,01,28.60
2019,05,26,19,02,28.60
2019,05,26,19,04,28.60
2019,05,26,19,05,28.60
2019,05,26,19,06,28.50
2019,05,26,19,07,28.40
2019,05,26,19,08,28.40